EW4719 Weather Reports


Display with metric or nautical units.
time (UTC)temp
F
wind
direction
speed
MPH
gust
MPH
rain 1hr
in
rain 24hr
in
rain mn
in
humidity
%
barometer
mb
20260507221601 49 202 9.0 24.0 0.00 0.00 0.00 75 1011.8
20260507220001 49 213 10.0 25.0 0.00 0.00 0.00 76 1011.8
20260507214542 49 205 9.0 21.0 0.00 0.00 0.00 76 1011.8
20260507213151 49 217 9.0 26.0 0.00 0.00 0.00 77 1011.8
20260507211601 49 186 8.0 20.0 0.00 0.00 0.00 77 1011.8
20260507210124 49 234 9.0 23.0 0.00 0.00 0.00 76 1011.8
20260507204520 50 168 8.0 19.0 0.00 0.00 0.00 76 1011.9
20260507203059 50 178 10.0 19.0 0.00 0.00 0.00 76 1012.1
20260507201604 50 178 8.0 19.0 0.00 0.00 0.00 75 1012.0
20260507200120 50 234 9.0 22.0 0.00 0.00 0.00 75 1011.9
20260507194528 51 209 6.0 15.0 0.00 0.00 0.00 74 1011.8
20260507193027 51 178 7.0 15.0 0.00 0.00 0.00 73 1011.7
20260507191544 51 217 4.0 12.0 0.00 0.00 0.00 73 1011.7
20260507190116 52 162 5.0 14.0 0.00 0.00 0.00 72 1011.9
20260507184523 52 198 6.0 14.0 0.00 0.00 0.00 71 1011.8
20260507183137 52 179 5.0 14.0 0.00 0.00 0.00 70 1011.7
20260507181544 53 208 6.0 13.0 0.00 0.00 0.00 68 1011.6
20260507180117 53 165 5.0 14.0 0.00 0.00 0.00 67 1011.6
20260507174518 54 195 8.0 17.0 0.00 0.00 0.00 66 1011.5
20260507173058 54 250 6.0 18.0 0.00 0.00 0.00 65 1011.5
20260507171602 55 234 9.0 18.0 0.00 0.00 0.00 63 1011.3
20260507170124 56 185 7.0 14.0 0.00 0.00 0.00 61 1011.3
20260507164536 57 187 7.0 17.0 0.00 0.00 0.00 62 1011.3
20260507163103 58 211 5.0 16.0 0.00 0.00 0.00 60 1011.5
20260507161610 58 202 9.0 15.0 0.00 0.00 0.00 59 1011.6
20260507160124 57 217 8.0 21.0 0.00 0.00 0.00 61 1011.5
20260507154530 59 198 7.0 20.0 0.00 0.00 0.00 57 1011.6
20260507153109 58 180 7.0 19.0 0.00 0.00 0.00 58 1011.8
20260507151532 56 237 4.0 17.0 0.00 0.00 0.00 63 1011.7
20260507150005 55 173 8.0 16.0 0.00 0.00 0.00 63 1011.8
20260507144527 54 179 9.0 19.0 0.00 0.00 0.00 64 1011.8
20260507143053 54 216 7.0 20.0 0.00 0.00 0.00 68 1011.9
20260507141537 52 194 7.0 18.0 0.00 0.00 0.00 69 1012.0
20260507134618 52 160 8.0 16.0 0.00 0.00 0.00 69 1012.3
20260507133128 52 241 6.0 16.0 0.00 0.00 0.00 71 1012.3
20260507131524 52 211 6.0 15.0 0.00 0.00 0.00 71 1012.2
20260507130109 52 167 6.0 16.0 0.00 0.00 0.00 70 1012.3
20260507124615 51 199 6.0 17.0 0.00 0.00 0.00 71 1012.5
20260507123117 51 173 9.0 20.0 0.00 0.00 0.00 71 1012.3
20260507121605 50 127 9.0 18.0 0.00 0.00 0.00 73 1012.4
20260507120123 49 182 7.0 22.0 0.00 0.00 0.00 74 1012.6
20260507113057 48 131 7.0 14.0 0.00 0.00 0.00 75 1012.7
20260507111553 48 186 7.0 18.0 0.00 0.00 0.00 75 1012.7
20260507110117 48 174 7.0 17.0 0.00 0.00 0.00 73 1012.8
20260507104611 49 236 8.0 16.0 0.00 0.00 0.00 72 1012.9
20260507103006 49 174 7.0 21.0 0.00 0.00 0.00 71 1012.9
20260507101553 49 156 7.0 14.0 0.00 0.00 0.00 70 1012.8
20260507100113 49 159 6.0 17.0 0.00 0.00 0.00 70 1012.8
20260507094603 50 165 7.0 16.0 0.00 0.00 0.00 71 1012.6
20260507093003 51 173 6.0 14.0 0.00 0.00 0.00 71 1012.6
20260507091547 51 189 7.0 13.0 0.00 0.00 0.00 71 1012.6
20260507090111 51 159 7.0 16.0 0.00 0.00 0.00 72 1012.5
20260507084606 51 197 4.0 20.0 0.00 0.00 0.00 72 1012.6
20260507083124 51 173 5.0 19.0 0.00 0.00 0.00 73 1012.6
20260507081528 50 248 8.0 16.0 0.00 0.00 0.00 72 1012.6
20260507080007 48 171 7.0 13.0 0.00 0.00 0.00 75 1012.6
20260507074512 48 175 7.0 17.0 0.00 0.00 0.00 76 1012.7
20260507073128 47 240 6.0 21.0 0.00 0.00 0.00 77 1012.6
20260507071530 45 236 6.0 14.0 0.00 0.00 0.00 78 1012.7
20260507070150 45 213 7.0 16.0 0.00 0.00 0.00 77 1012.6
20260507064542 45 246 7.0 13.0 0.00 0.00 0.00 76 1012.5
20260507063059 45 238 7.0 17.0 0.00 0.00 0.00 76 1012.7
20260507061553 45 187 8.0 21.0 0.00 0.00 0.00 76 1012.7
20260507060107 44 201 9.0 18.0 0.00 0.00 0.00 76 1012.7
20260507054545 44 226 8.0 17.0 0.00 0.00 0.00 75 1012.7
20260507053120 44 188 8.0 21.0 0.00 0.00 0.00 75 1012.7
20260507051609 44 211 8.0 14.0 0.00 0.00 0.00 74 1012.6
20260507050128 44 184 8.0 16.0 0.00 0.00 0.00 73 1012.8
20260507044513 44 186 8.0 16.0 0.00 0.00 0.00 72 1012.8
20260507043133 44 202 9.0 20.0 0.00 0.00 0.00 71 1012.7
20260507041544 44 222 7.0 17.0 0.00 0.00 0.00 71 1012.7
20260507040100 44 158 7.0 17.0 0.00 0.00 0.00 70 1012.6
20260507034556 45 264 9.0 20.0 0.00 0.00 0.00 69 1012.6
20260507033116 45 170 9.0 20.0 0.00 0.00 0.00 68 1012.9
20260507031514 45 227 6.0 15.0 0.00 0.00 0.00 69 1013.1
20260507030001 44 234 6.0 12.0 0.00 0.00 0.00 70 1013.1
20260507024547 44 199 6.0 15.0 0.00 0.00 0.00 70 1013.1
20260507023109 44 250 5.0 12.0 0.00 0.00 0.00 69 1013.2
20260507021609 44 155 6.0 15.0 0.00 0.00 0.00 70 1013.0
20260507020009 44 167 6.0 12.0 0.00 0.00 0.00 69 1013.0
20260507014544 44 190 6.0 15.0 0.00 0.00 0.00 69 1013.0
20260507013023 44 184 7.0 12.0 0.00 0.00 0.00 68 1013.1
20260507011548 44 205 7.0 17.0 0.00 0.00 0.00 68 1013.2
20260507010101 44 182 6.0 11.0 0.00 0.00 0.00 68 1013.3
20260507004557 44 208 6.0 11.0 0.00 0.00 0.00 68 1013.4
20260507003119 44 207 6.0 14.0 0.00 0.00 0.00 68 1013.5
20260507001505 44 206 5.0 12.0 0.00 0.00 0.00 68 1013.5
20260507000005 43 164 7.0 15.0 0.00 0.00 0.00 70 1013.6
20260506234539 43 185 7.0 15.0 0.00 0.00 0.00 70 1013.6
20260506233100 43 192 8.0 18.0 0.00 0.00 0.00 70 1013.7
20260506231557 43 175 7.0 17.0 0.00 0.00 0.00 70 1013.9
20260506230109 43 171 6.0 15.0 0.00 0.00 0.00 70 1013.9
20260506224601 43 166 6.0 13.0 0.00 0.00 0.00 70 1013.9
20260506223133 44 161 6.0 13.0 0.00 0.00 0.00 69 1014.0